Time,TemperatureF,DewpointF,PressureIn,WindDirection,WindDirectionDegrees,WindSpeedMPH,WindSpeedGustMPH,Humidity,HourlyPrecipIn,Conditions,Clouds,dailyrainin,SoftwareType,DateUTC
2013-01-14 08:30:00,47.2,46.1,30.00,SSW,202,0.0,2.0,96,0.00,,BKN200,0.02,VWS V14.01,2013-01-14 13:30:00,
2013-01-14 08:35:00,47.1,46.0,30.00,SSW,202,0.0,1.0,96,0.00,,BKN200,0.02,VWS V14.01,2013-01-14 13:35:00,
2013-01-14 08:40:00,47.1,46.0,30.01,SSW,202,0.0,0.0,96,0.00,,BKN200,0.02,VWS V14.01,2013-01-14 13:40:00,
2013-01-14 08:45:00,47.1,46.0,30.01,SSW,202,0.0,0.0,96,0.00,,BKN200,0.02,VWS V14.01,2013-01-14 13:45:00,
2013-01-14 08:50:00,47.1,46.0,30.02,SSW,202,0.0,0.0,96,0.00,,BKN200,0.02,VWS V14.01,2013-01-14 13:50:00,
2013-01-14 08:55:00,47.3,46.2,30.03,SSW,202,0.0,1.0,96,0.00,,BKN200,0.02,VWS V14.01,2013-01-14 13:55:00,
2013-01-14 09:00:00,47.5,46.4,30.02,SSW,202,0.0,1.0,96,0.00,,BKN200,0.02,VWS V14.01,2013-01-14 14:00:00,
2013-01-14 09:05:00,47.6,46.5,30.03,SSW,202,0.0,0.0,96,0.00,,BKN200,0.02,VWS V14.01,2013-01-14 14:05:00,
2013-01-14 09:10:00,47.6,46.5,30.02,SSW,202,0.0,0.0,96,0.00,,BKN200,0.02,VWS V14.01,2013-01-14 14:10:00,
2013-01-14 09:15:00,47.6,46.5,30.03,SSW,202,0.0,2.0,96,0.00,,BKN200,0.02,VWS V14.01,2013-01-14 14:15:00,
2013-01-14 09:20:00,47.8,46.7,30.03,SSW,202,0.0,1.0,96,0.00,,BKN200,0.02,VWS V14.01,2013-01-14 14:20:00,
2013-01-14 09:25:00,47.9,46.8,30.03,SSW,202,0.0,3.0,96,0.00,,BKN200,0.02,VWS V14.01,2013-01-14 14:25:00,
2013-01-14 09:30:00,47.2,46.1,30.00,SSW,202,0.0,2.0,96,0.00,,OVC130,0.02,VWS V14.01,2013-01-14 14:30:00,
2013-01-14 09:35:00,47.1,46.0,30.00,SSW,202,0.0,1.0,96,0.00,,OVC130,0.02,VWS V14.01,2013-01-14 14:35:00,
2013-01-14 09:40:00,47.1,46.0,30.01,SSW,202,0.0,0.0,96,0.00,,OVC130,0.02,VWS V14.01,2013-01-14 14:40:00,
2013-01-14 09:45:00,47.1,46.0,30.01,SSW,202,0.0,0.0,96,0.00,,OVC130,0.02,VWS V14.01,2013-01-14 14:45:00,
2013-01-14 09:50:00,47.1,46.0,30.02,SSW,202,0.0,0.0,96,0.00,,OVC130,0.02,VWS V14.01,2013-01-14 14:50:00,
2013-01-14 09:55:00,47.3,46.2,30.03,SSW,202,0.0,1.0,96,0.00,,OVC130,0.02,VWS V14.01,2013-01-14 14:55:00,
2013-01-14 10:00:00,47.5,46.4,30.02,SSW,202,0.0,1.0,96,0.00,,OVC130,0.02,VWS V14.01,2013-01-14 15:00:00,
2013-01-14 10:05:00,47.6,46.5,30.03,SSW,202,0.0,0.0,96,0.00,,OVC130,0.02,VWS V14.01,2013-01-14 15:05:00,
2013-01-14 10:10:00,47.6,46.5,30.02,SSW,202,0.0,0.0,96,0.00,,OVC130,0.02,VWS V14.01,2013-01-14 15:10:00,
2013-01-14 10:15:00,47.6,46.5,30.03,SSW,202,0.0,2.0,96,0.00,,OVC130,0.02,VWS V14.01,2013-01-14 15:15:00,
2013-01-14 10:20:00,47.8,46.7,30.03,SSW,202,0.0,1.0,96,0.00,,OVC130,0.02,VWS V14.01,2013-01-14 15:20:00,
2013-01-14 10:25:00,47.9,46.8,30.03,SSW,202,0.0,3.0,96,0.00,,OVC130,0.02,VWS V14.01,2013-01-14 15:25:00,
2013-01-14 10:30:00,48.1,47.0,30.03,SSW,202,0.0,2.0,96,0.00,,OVC130,0.02,VWS V14.01,2013-01-14 15:30:00,
2013-01-14 10:35:00,48.2,47.1,30.04,SSW,202,0.0,3.0,96,0.00,,OVC130,0.02,VWS V14.01,2013-01-14 15:35:00,
2013-01-14 10:40:00,48.3,47.2,30.03,SSW,202,0.0,0.0,96,0.00,,OVC130,0.02,VWS V14.01,2013-01-14 15:40:00,
2013-01-14 10:45:00,48.3,47.2,30.03,SSW,202,0.0,2.0,96,0.00,,OVC130,0.02,VWS V14.01,2013-01-14 15:45:00,
2013-01-14 10:50:00,48.5,47.4,30.02,SSW,202,0.0,0.0,96,0.00,,OVC130,0.02,VWS V14.01,2013-01-14 15:50:00,
2013-01-14 10:55:00,48.5,47.4,30.02,SSW,202,0.0,0.0,96,0.00,,OVC130,0.02,VWS V14.01,2013-01-14 15:55:00,
2013-01-14 11:00:00,48.6,47.5,30.01,SSW,202,0.0,0.0,96,0.00,,OVC130,0.02,VWS V14.01,2013-01-14 16:00:00,
2013-01-14 11:05:00,48.6,47.5,30.01,SSW,202,0.0,0.0,96,0.00,,OVC130,0.02,VWS V14.01,2013-01-14 16:05:00,
2013-01-14 20:00:00,34.7,23.4,30.22,North,0,0.0,1.0,63,0.00,,BKN200,0.02,VWS V14.01,2013-01-15 01:00:00,
2013-01-14 20:05:00,34.7,23.4,30.23,North,0,0.0,1.0,63,0.00,,BKN200,0.02,VWS V14.01,2013-01-15 01:05:00,
2013-01-14 20:10:00,34.6,23.7,30.22,North,0,0.0,1.0,64,0.00,,BKN200,0.02,VWS V14.01,2013-01-15 01:10:00,
2013-01-14 20:15:00,34.6,23.7,30.23,North,0,0.0,1.0,64,0.00,,BKN200,0.02,VWS V14.01,2013-01-15 01:15:00,
2013-01-14 20:20:00,34.5,23.6,30.22,North,0,1.0,25.0,64,0.00,,BKN200,0.02,VWS V14.01,2013-01-15 01:20:00,
2013-01-14 20:25:00,34.4,23.5,30.23,North,0,0.0,1.0,64,0.00,,BKN200,0.02,VWS V14.01,2013-01-15 01:25:00,
2013-01-14 20:30:00,34.4,23.5,30.23,North,0,0.0,2.0,64,0.00,,BKN200,0.02,VWS V14.01,2013-01-15 01:30:00,
2013-01-14 20:35:00,34.3,23.4,30.21,NNW,338,0.0,1.0,64,0.00,,BKN200,0.02,VWS V14.01,2013-01-15 01:35:00,
2013-01-14 20:40:00,34.3,23.0,30.19,North,0,1.0,13.0,63,0.00,,BKN200,0.02,VWS V14.01,2013-01-15 01:40:00,
2013-01-14 20:45:00,34.3,23.4,30.23,North,0,0.0,1.0,64,0.00,,BKN200,0.02,VWS V14.01,2013-01-15 01:45:00,
2013-01-14 20:50:00,34.2,23.3,30.23,North,0,0.0,1.0,64,0.00,,BKN200,0.02,VWS V14.01,2013-01-15 01:50:00,
2013-01-14 20:55:00,34.1,23.6,30.24,North,0,0.0,1.0,65,0.00,,BKN200,0.02,VWS V14.01,2013-01-15 01:55:00,
2013-01-14 21:00:00,34.7,23.4,30.22,North,0,0.0,1.0,63,0.00,,OVC130,0.02,VWS V14.01,2013-01-15 02:00:00,
2013-01-14 21:05:00,34.7,23.4,30.23,North,0,0.0,1.0,63,0.00,,OVC130,0.02,VWS V14.01,2013-01-15 02:05:00,
2013-01-14 21:10:00,34.6,23.7,30.22,North,0,0.0,1.0,64,0.00,,OVC130,0.02,VWS V14.01,2013-01-15 02:10:00,
2013-01-14 21:15:00,34.6,23.7,30.23,North,0,0.0,1.0,64,0.00,,OVC130,0.02,VWS V14.01,2013-01-15 02:15:00,
2013-01-14 21:20:00,34.5,23.6,30.22,North,0,1.0,25.0,64,0.00,,OVC130,0.02,VWS V14.01,2013-01-15 02:20:00,
2013-01-14 21:25:00,34.4,23.5,30.23,North,0,0.0,1.0,64,0.00,,OVC130,0.02,VWS V14.01,2013-01-15 02:25:00,
2013-01-14 21:30:00,34.4,23.5,30.23,North,0,0.0,2.0,64,0.00,,OVC130,0.02,VWS V14.01,2013-01-15 02:30:00,
2013-01-14 21:35:00,34.3,23.4,30.21,NNW,338,0.0,1.0,64,0.00,,OVC130,0.02,VWS V14.01,2013-01-15 02:35:00,
2013-01-14 21:40:00,34.3,23.0,30.19,North,0,1.0,13.0,63,0.00,,OVC130,0.02,VWS V14.01,2013-01-15 02:40:00,
2013-01-14 21:45:00,34.3,23.4,30.23,North,0,0.0,1.0,64,0.00,,OVC130,0.02,VWS V14.01,2013-01-15 02:45:00,
2013-01-14 21:50:00,34.2,23.3,30.23,North,0,0.0,1.0,64,0.00,,OVC130,0.02,VWS V14.01,2013-01-15 02:50:00,
2013-01-14 21:55:00,34.1,23.6,30.24,North,0,0.0,1.0,65,0.00,,OVC130,0.02,VWS V14.01,2013-01-15 02:55:00,
2013-01-14 22:00:00,34.1,23.2,30.24,North,0,0.0,1.0,64,0.00,,OVC130,0.02,VWS V14.01,2013-01-15 03:00:00,
2013-01-14 22:05:00,34.1,23.6,30.25,North,0,0.0,3.0,65,0.00,,OVC130,0.02,VWS V14.01,2013-01-15 03:05:00,
2013-01-14 22:10:00,34.0,23.5,30.24,North,0,0.0,1.0,65,0.00,,OVC130,0.02,VWS V14.01,2013-01-15 03:10:00,
2013-01-14 22:15:00,34.0,23.5,30.25,North,0,0.0,1.0,65,0.00,,OVC130,0.02,VWS V14.01,2013-01-15 03:15:00,
2013-01-14 22:20:00,34.0,23.5,30.25,North,0,0.0,0.0,65,0.00,,OVC130,0.02,VWS V14.01,2013-01-15 03:20:00,
2013-01-14 22:25:00,34.0,23.5,30.23,North,0,0.0,0.0,65,0.00,,OVC130,0.02,VWS V14.01,2013-01-15 03:25:00,
2013-01-14 22:30:00,33.8,22.9,30.25,North,0,0.0,1.0,64,0.00,,OVC130,0.02,VWS V14.01,2013-01-15 03:30:00,
2013-01-14 22:35:00,33.8,23.3,30.26,North,0,0.0,0.0,65,0.00,,OVC130,0.02,VWS V14.01,2013-01-15 03:35:00,
2013-01-14 22:40:00,33.8,23.3,30.25,North,0,0.0,1.0,65,0.00,,OVC130,0.02,VWS V14.01,2013-01-15 03:40:00,
2013-01-14 22:45:00,33.8,23.3,30.26,NNE,22,0.0,1.0,65,0.00,,OVC130,0.02,VWS V14.01,2013-01-15 03:45:00,
2013-01-14 22:50:00,33.8,23.3,30.24,NNE,22,0.0,1.0,65,0.00,,OVC130,0.02,VWS V14.01,2013-01-15 03:50:00,
2013-01-14 22:55:00,33.7,23.2,30.23,NNE,22,0.0,2.0,65,0.00,,OVC130,0.02,VWS V14.01,2013-01-15 03:55:00,
2013-01-14 23:00:00,33.7,23.2,30.24,NNE,22,0.0,1.0,65,0.00,,OVC130,0.02,VWS V14.01,2013-01-15 04:00:00,
2013-01-14 23:05:00,33.7,23.2,30.24,NNE,22,0.0,1.0,65,0.00,,OVC130,0.02,VWS V14.01,2013-01-15 04:05:00,
2013-01-14 23:10:00,33.7,23.6,30.24,NNE,22,0.0,1.0,66,0.00,,OVC130,0.02,VWS V14.01,2013-01-15 04:10:00,
2013-01-14 23:15:00,33.7,23.9,30.24,NNE,22,0.0,1.0,67,0.00,,OVC130,0.02,VWS V14.01,2013-01-15 04:15:00,
2013-01-14 23:20:00,33.5,23.7,30.23,NNE,22,0.0,1.0,67,0.00,,OVC130,0.02,VWS V14.01,2013-01-15 04:20:00,
2013-01-14 23:25:00,33.4,23.6,30.24,NNE,22,0.0,1.0,67,0.00,,OVC130,0.02,VWS V14.01,2013-01-15 04:25:00,
2013-01-14 23:30:00,33.4,24.3,30.23,NNE,22,0.0,0.0,69,0.00,,OVC130,0.02,VWS V14.01,2013-01-15 04:30:00,
2013-01-14 23:35:00,33.2,23.8,30.24,NNE,22,0.0,1.0,68,0.00,,OVC130,0.02,VWS V14.01,2013-01-15 04:35:00,
2013-01-14 23:40:00,33.2,24.5,30.25,NNE,22,0.0,0.0,70,0.00,,OVC130,0.02,VWS V14.01,2013-01-15 04:40:00,
2013-01-14 23:45:00,33.2,24.1,30.25,NNE,22,0.0,1.0,69,0.00,,OVC130,0.02,VWS V14.01,2013-01-15 04:45:00,
2013-01-14 23:50:00,33.1,23.7,30.24,NNE,22,0.0,1.0,68,0.00,,OVC130,0.02,VWS V14.01,2013-01-15 04:50:00,
2013-01-14 23:55:00,33.1,23.7,30.24,NNE,22,0.0,0.0,68,0.00,,OVC130,0.02,VWS V14.01,2013-01-15 04:55:00,